Weather History for Fort Leonard Wood, MO

Change the Weather History Date:

Thursday, July 31, 2014

  Actual Average Record
Temperature  
Mean Temperature 70 °F -  
Max Temperature 85 °F 85 °F 101 °F (2012)
Min Temperature 55 °F 68 °F 37 °F (2005)
Cooling Degree Days 5    
Growing Degree Days 20 (Base 50)    
Moisture  
Dew Point 59 °F    
Average Humidity 86    
Maximum Humidity 100    
Minimum Humidity 39    
Precipitation  
Precipitation 0.00 in - - ()
Sea Level Pressure  
Sea Level Pressure 30.09 in    
Wind  
Wind Speed 2 mph (SW)    
Max Wind Speed 9 mph    
Max Gust Speed -    
Visibility 5 miles    
Events Fog    
Averages and records for this station are not official NWS values.
T = Trace of Precipitation, MM = Missing Value Source: NWS Daily Summary

Daily Weather History Graph

Daily Weather History Graph

Search for Another Location

Airport:

Trip Planner

Search our weather history database for the weather conditions in past years. The results will help you decide how hot, cold, wet, or windy it might be!

Date:

Astronomy

Jul. 31, 2014 Rise Set
Actual Time 6:11 AM CDT 8:18 PM CDT
Civil Twilight 5:42 AM CDT 8:47 PM CDT
Nautical Twilight 5:06 AM CDT 9:22 PM CDT
Astronomical Twilight 4:27 AM CDT 10:01 PM CDT
Moon 10:33 AM CDT (7/31) 10:37 PM CDT (7/31)
Length of Visible Light 15h 04m
Length of Day
14h 06m
Waxing Crescent, 19% of the Moon is Illuminated
Jul 31
Waxing Crescent
Aug 3
First Quarter
Aug 10
Full
Aug 17
Last Quarter
Aug 25
New

Hourly Weather History & Observations

Time (CDT) Temp. Heat Index Dew Point Humidity Pressure Visibility Wind Dir Wind Speed Gust Speed Precip Events Conditions
12:53 AM 60.8 °F - 60.8 °F 100% 30.10 in 0.2 mi Calm Calm - N/A Fog Fog
12:58 AM 60.8 °F - 60.8 °F 100% 30.09 in 0.2 mi Calm Calm - N/A Fog Fog
1:03 AM 60.8 °F - 60.8 °F 100% 30.10 in 0.5 mi WSW 1.2 mph - N/A Fog Fog
1:08 AM 59.0 °F - 59.0 °F 100% 30.10 in 1.5 mi West 2.3 mph - N/A   Clear
1:13 AM 59.0 °F - 59.0 °F 100% 30.10 in 2.0 mi WSW 2.3 mph - N/A   Clear
1:18 AM 59.0 °F - 59.0 °F 100% 30.10 in 4.0 mi SW 3.5 mph - N/A   Clear
1:33 AM 60.8 °F - 60.8 °F 100% 30.10 in 0.8 mi SW 2.3 mph - N/A   Clear
1:38 AM 59.0 °F - 59.0 °F 100% 30.10 in 0.5 mi SW 2.3 mph - N/A Fog Fog
1:58 AM 60.8 °F - 60.8 °F 100% 30.09 in 0.8 mi Calm Calm - N/A   Clear
2:08 AM 60.8 °F - 60.8 °F 100% 30.10 in 1.0 mi Calm Calm - N/A   Clear
2:13 AM 60.8 °F - 60.8 °F 100% 30.10 in 1.5 mi SSW 1.2 mph - N/A   Clear
2:28 AM 60.8 °F - 60.8 °F 100% 30.10 in 0.8 mi SSW 2.3 mph - N/A   Clear
2:33 AM 59.0 °F - 59.0 °F 100% 30.10 in 1.0 mi SSW 1.2 mph - N/A   Clear
2:38 AM 57.2 °F - 57.2 °F 100% 30.10 in 4.0 mi SSW 2.3 mph - N/A   Clear
2:43 AM 57.2 °F - 57.2 °F 100% 30.10 in 1.5 mi SSW 2.3 mph - N/A   Clear
2:58 AM 58.1 °F - 58.1 °F 100% 30.08 in 1.2 mi SW 2.3 mph - N/A   Clear
3:33 AM 59.0 °F - 59.0 °F 100% 30.10 in 0.8 mi Calm Calm - N/A   Clear
3:38 AM 59.0 °F - 59.0 °F 100% 30.09 in 0.5 mi WSW 1.2 mph - N/A Fog Fog
3:48 AM 57.2 °F - 57.2 °F 100% 30.10 in 1.0 mi SW 2.3 mph - N/A   Clear
3:53 AM 57.2 °F - 57.2 °F 100% 30.10 in 1.5 mi SW 2.3 mph - N/A   Clear
3:58 AM 56.5 °F - 56.5 °F 100% 30.09 in 7.0 mi SW 2.3 mph - N/A   Clear
4:58 AM 57.4 °F - 57.4 °F 100% 30.08 in 10.0 mi West 2.3 mph - N/A   Clear
5:08 AM 57.2 °F - 57.2 °F 100% 30.09 in 2.5 mi WNW 1.2 mph - N/A   Clear
5:13 AM 57.2 °F - 57.2 °F 100% 30.09 in 0.8 mi Calm Calm - N/A   Clear
5:18 AM 59.0 °F - 59.0 °F 100% 30.10 in 0.5 mi Calm Calm - N/A Fog Fog
5:28 AM 55.4 °F - 55.4 °F 100% 30.10 in 0.8 mi Calm Calm - N/A   Clear
5:33 AM 55.4 °F - 55.4 °F 100% 30.10 in 1.5 mi Calm Calm - N/A   Clear
5:38 AM 57.2 °F - 57.2 °F 100% 30.10 in 0.8 mi Calm Calm - N/A   Clear
5:53 AM 57.2 °F - 57.2 °F 100% 30.10 in 0.5 mi Calm Calm - N/A Fog Fog
5:58 AM 55.4 °F - 55.4 °F 100% 30.09 in 2.0 mi Calm Calm - N/A   Clear
6:03 AM 55.4 °F - 55.4 °F 100% 30.10 in 4.0 mi Calm Calm - N/A   Clear
6:08 AM 55.4 °F - 55.4 °F 100% 30.10 in 2.5 mi SSW 2.3 mph - N/A   Partly Cloudy
6:18 AM 57.2 °F - 57.2 °F 100% 30.10 in 5.0 mi WNW 1.2 mph - N/A   Mostly Cloudy
6:55 AM 59.0 °F - 59.0 °F 100% 30.10 in 10.0 mi Calm Calm - N/A   Light Drizzle
6:58 AM 58.6 °F - 58.6 °F 100% 30.09 in 10.0 mi Calm Calm - 0.00 in   Light Drizzle
7:04 AM 59.0 °F - 59.0 °F 100% 30.10 in 10.0 mi Calm Calm - N/A   Partly Cloudy
7:58 AM 62.4 °F - 62.4 °F 100% 30.10 in 10.0 mi Calm Calm - 0.00 in   Mostly Cloudy
8:58 AM 68.0 °F - 64.4 °F 88% 30.11 in 10.0 mi Calm Calm - N/A   Partly Cloudy
9:58 AM 73.9 °F - 62.2 °F 67% 30.10 in 10.0 mi Variable 4.6 mph - N/A   Clear
10:58 AM 77.9 °F - 59.9 °F 54% 30.11 in 10.0 mi Variable 6.9 mph - N/A   Clear
11:58 AM 79.0 °F - 60.1 °F 52% 30.10 in 10.0 mi ESE 4.6 mph - N/A   Clear
12:58 PM 79.9 °F - 58.5 °F 48% 30.09 in 10.0 mi South 3.5 mph - N/A   Scattered Clouds
1:58 PM 81.5 °F 81.5 °F 57.9 °F 44% 30.08 in 10.0 mi Variable 3.5 mph - N/A   Scattered Clouds
2:38 PM 84.2 °F 83.5 °F 57.2 °F 40% 30.08 in 10.0 mi SE 5.8 mph - N/A   Light Drizzle
2:47 PM 82.4 °F 82.0 °F 57.2 °F 42% 30.07 in 10.0 mi Variable 3.5 mph - N/A   Partly Cloudy
2:58 PM 84.0 °F 83.3 °F 57.2 °F 40% 30.06 in 10.0 mi Variable 5.8 mph - 0.00 in   Mostly Cloudy
3:58 PM 80.6 °F 80.9 °F 57.9 °F 46% 30.05 in 10.0 mi West 2.3 mph - N/A   Clear
4:58 PM 85.8 °F 85.0 °F 58.1 °F 39% 30.04 in 10.0 mi North 9.2 mph - N/A   Scattered Clouds
5:58 PM 83.3 °F 82.5 °F 55.9 °F 39% 30.04 in 10.0 mi Variable 4.6 mph - N/A   Clear
6:58 PM 82.9 °F 82.3 °F 56.1 °F 40% 30.03 in 10.0 mi East 3.5 mph - N/A   Clear
7:58 PM 77.7 °F - 64.4 °F 63% 30.04 in 10.0 mi South 3.5 mph - N/A   Clear
8:58 PM 72.5 °F - 65.3 °F 78% 30.05 in 10.0 mi South 4.6 mph - N/A   Clear